Location: Bismark
(53.4567°N, 14.3152°E)
Time: 06:46:40
(UTC+00:00)

Daily predictions for brighter satellites

Satellite Brightness Start Highest point End
(mag) Time Altitude Azimuth Time Altitude Azimuth Time Altitude Azimuth
SPOT 3 Rocket 3.9 19:17:49 10° S 19:23:02 73° WSW 19:28:16 10° NNW
Cosmos 2251 Rocket 3.6 19:20:05 10° SSW 19:25:21 89° SE 19:30:42 10° NNE
Cosmos 1656 4.2 19:20:42 10° NW 19:26:04 58° WSW 19:31:27 10° SSE
Cosmos 1707 Rocket 3.6 19:25:55 10° N 19:30:17 67° ENE 19:34:35 10° SSE
Cosmos 220 Rocket 4.3 19:26:27 10° NNW 19:30:39 67° WSW 19:34:50 10° SSE
Cosmos 1633 4.4 19:29:36 10° SW 19:32:53 35° WNW 19:36:11 10° N
IRIDIUM 104 4.3 19:28:14 10° S 19:33:27 83° E 19:38:42 10° N
Resurs 01 Rocket 1.8 19:29:41 10° S 19:34:06 77° WSW 19:38:34 10° NNW
Landsat 7 4.0 19:30:56 10° SSE 19:35:36 59° ENE 19:40:18 10° N
Cosmos 1441 Rocket 3.1 19:36:14 10° S 19:40:00 68° E 19:43:46 10° NNE
Cosmos 1934 Rocket 4.4 19:34:52 10° SSE 19:40:55 48° E 19:47:00 10° NNE
Cosmos 2360 4.3 19:35:45 10° NNW 19:41:32 90° WNW 19:47:17 10° SSE
IRIDIUM 114 4.4 19:37:23 10° S 19:42:37 85° W 19:47:52 10° N
Cosmos 614 Rocket 4.0 19:38:45 10° S 19:43:50 62° ESE 19:48:59 10° NNE
IGS 5A 3.5 19:41:37 10° SSE 19:45:43 69° ENE 19:49:51 10° N
USA 267 3.5 19:39:54 10° ENE 19:46:13 49° SE 19:52:31 10° SW
Cosmos 1900 4.3 19:42:13 10° SW 19:47:11 80° SE 19:52:16 10° NE
GP-B 3.5 19:44:21 10° N 19:48:39 47° E 19:52:57 10° SSE
Cosmos 1821 Rocket 4.0 19:47:55 10° S 19:54:04 87° E 20:00:21 10° NNE
CZ-2C R/B 4.1 19:49:47 10° NNE 19:54:27 71° WNW 19:59:00 10° SSW
Cosmos 921 Rocket 3.5 19:50:26 10° NNW 19:54:33 46° ENE 19:58:03 13° SE
COSMOS 2406 3.2 19:50:32 10° SSW 19:56:17 79° ESE 20:02:03 10° NNE
Intercosmos 25 4.3 19:51:49 10° NNW 19:56:45 52° W 20:00:11 10° S
Cosmos 1862 Rocket 3.7 19:52:21 10° N 19:56:49 63° ENE 20:01:01 11° SSE
SL-16 R/B 3.1 19:51:56 10° NNW 19:57:16 38° NE 20:02:26 10° ESE
ERS-1 Rocket 3.2 19:56:08 12° SE 20:00:46 57° ENE 20:05:43 10° N
Lacrosse 5 2.0 19:56:08 10° WNW 20:01:14 75° NNE 20:06:20 10° ESE
Cosmos 2369 4.2 19:56:37 10° NW 20:02:17 60° WSW 20:07:53 10° SSE
Cosmos 1862 4.3 20:01:25 10° SSW 20:05:22 50° WNW 20:09:22 10° N
Sich 1 3.3 20:01:48 10° SSW 20:06:14 77° WNW 20:10:43 10° N
Cosmos 2219 Rocket 4.4 20:03:43 10° NNW 20:07:33 18° NNE 20:11:22 10° ENE
BREEZE-M DEB (TANK) 2.5 20:06:44 10° WSW 20:09:07 31° S 20:09:54 22° SE
NOSS 2 (A) 4.1 20:08:03 10° NW 20:10:51 78° NE 20:12:18 22° SE
Cosmos 2123 Rocket 4.1 20:05:08 10° NNW 20:11:22 84° W 20:17:37 10° S
Cosmos 2082 Rocket 2.4 20:05:58 10° S 20:11:26 49° ESE 20:16:54 10° NE
Cosmos 2278 3.9 20:05:54 10° NW 20:11:37 72° WSW 20:16:44 13° SSE
Cosmos 1954 Rocket 4.4 20:08:14 10° S 20:13:13 43° ESE 20:18:14 10° NE
Spot 2 Rocket 3.8 20:11:45 10° S 20:16:51 67° WSW 20:21:57 10° NNW
Cosmos 1535 Rocket 4.4 20:11:02 10° S 20:17:11 77° E 20:23:18 10° NNE
Meteor 1-4 Rocket 3.1 20:15:48 10° NNW 20:19:15 53° W 20:22:26 11° S
Cosmos 2322 Rocket 3.0 20:14:19 10° NNW 20:19:47 44° NE 20:24:25 14° ESE
CZ-2C R/B 4.4 20:17:16 10° N 20:21:54 34° WNW 20:26:32 10° SW
CARTOSAT-1 3.5 20:20:05 15° SSE 20:23:35 84° ENE 20:27:57 10° NNW
Cosmos 1184 Rocket 2.8 20:21:02 14° S 20:23:44 60° E 20:27:00 10° NNE
USA 234 3.6 20:18:46 15° SE 20:24:09 54° SW 20:30:34 10° WNW
Cosmos 1190 Rocket 4.0 20:18:54 10° SSW 20:24:10 78° ESE 20:29:31 10° NNE
Terra 2.0 20:21:08 17° SE 20:24:42 59° ENE 20:29:24 10° N
Cosmos 407 Rocket 3.6 20:21:47 10° SSW 20:27:08 86° WNW 20:32:27 10° NNE
Cosmos 1933 Rocket 4.0 20:24:17 17° SSE 20:27:23 44° E 20:31:37 10° NNE
Cosmos 1605 Rocket 4.0 20:21:26 10° S 20:27:30 65° E 20:33:32 10° NNE
Cosmos 1666 Rocket 3.8 20:23:32 10° SSW 20:27:49 69° WNW 20:32:11 10° N
Okean 1 3.4 20:24:48 10° N 20:28:50 62° ENE 20:31:27 21° SSE
Meteor 1-20 Rocket 4.4 20:23:36 10° S 20:29:19 62° E 20:35:07 10° NNE
Cosmos 1238 Rocket 2.4 20:28:02 23° SSE 20:29:36 47° E 20:32:27 10° NNE
Cosmos 1437 Rocket 3.1 20:29:37 10° N 20:33:22 49° ENE 20:35:27 23° SE
Cosmos 2360 Rocket 3.3 20:28:40 10° NNW 20:33:53 35° NE 20:38:35 12° ESE
Cosmos 1602 4.2 20:31:37 21° SSE 20:33:56 44° E 20:37:42 10° NNE
ATLAS 3B R/B 4.3 20:34:00 11° ESE 20:34:32 11° ESE 20:36:27 10° E
Meteor 1-19 Rocket 4.1 20:32:54 10° N 20:38:21 73° ENE 20:42:13 20° SSE
SPOT 5 2.6 20:35:55 18° SSE 20:39:04 82° WSW 20:43:28 10° NNW
ERBS 3.0 20:35:51 10° W 20:39:07 54° NNW 20:42:23 10° ENE
USA 238 DEB 4.0 20:33:59 10° S 20:40:12 44° ESE 20:46:41 10° NE
USA 238 4.0 20:34:06 10° S 20:40:19 44° ESE 20:46:47 10° NE
Cosmos 1980 Rocket 2.8 20:37:13 10° NW 20:42:42 49° WSW 20:47:05 15° S
Iridium 4 Rocket 4.1 20:41:58 21° ESE 20:43:51 29° E 20:47:30 10° NNE
Geosat 4.4 20:40:38 18° ESE 20:44:12 54° NE 20:49:08 10° NNW
Cosmos 1703 Rocket 3.5 20:40:08 10° N 20:44:31 70° ENE 20:47:05 24° SSE
Cosmos 2242 Rocket 3.5 20:40:03 10° NNW 20:44:33 90° SSW 20:47:29 21° S
SPOT 1/Viking Rocket 4.3 20:39:53 11° S 20:44:49 50° W 20:49:56 10° NNW
Cosmos 1763 Rocket 3.5 20:42:21 10° NNW 20:47:43 81° ENE 20:51:08 23° SSE
Genesis I 4.4 20:45:13 10° WNW 20:48:42 32° WSW 20:50:44 20° S
SL-4 R/B 2.2 20:46:17 10° SW 20:49:49 36° SSE 20:51:34 22° ESE
BREEZE-M DEB (TANK) 3.1 20:47:09 10° WSW 20:50:17 57° S 20:59:42 10° E
Cosmos 1500 4.3 20:50:18 24° ESE 20:51:14 27° E 20:54:27 10° NNE
Cosmos 405 Rocket 2.6 20:49:22 23° S 20:51:30 67° E 20:55:14 10° NNE
Cosmos 1140 Rocket 3.8 20:47:35 10° SW 20:52:50 70° WNW 20:58:06 10° NNE
FAST 4.4 20:50:48 10° NNW 20:53:46 79° W 20:54:41 37° S
Cosmos 2333 Rocket 3.9 20:48:56 10° NNW 20:53:51 27° NE 20:58:43 10° E
Cosmos 1697 Rocket 4.5 20:53:37 10° NW 20:57:57 23° WSW 21:02:16 10° SSW
USA 32 4.4 20:53:23 10° SSW 20:58:34 65° W 21:03:48 10° N
Cosmos 1633 Rocket 4.3 20:57:04 10° SW 21:01:16 41° WNW 21:05:30 10° N
Cosmos 1459 Rocket 4.4 20:58:06 22° SSE 21:01:54 48° E 21:07:58 10° NNE
Cosmos 1833 Rocket 3.4 20:56:41 10° SW 21:02:12 56° NW 21:07:47 10° NNE
Cosmos 1666 4.3 21:02:40 18° E 21:03:07 18° E 21:05:45 10° NE
Meteor 1-18 Rocket 4.4 21:00:21 10° NNW 21:05:56 67° W 21:09:49 20° S
Okean 1-7 3.0 21:01:50 10° NNW 21:06:12 83° W 21:08:30 27° S
Cosmos 2221 Rocket 4.3 21:02:49 10° N 21:07:03 41° ENE 21:09:01 26° ESE
Cosmos 1153 Rocket 4.4 21:03:26 17° S 21:08:22 82° E 21:14:35 10° NNE
Cosmos 1867 3.5 21:03:06 10° SW 21:08:33 77° SE 21:14:02 10° NE
CENTAUR R/B 3.0 21:04:46 19° S 21:08:43 41° ESE 21:15:17 10° NE
Resurs 01 Rocket 4.4 21:09:54 10° WSW 21:11:23 11° W 21:12:53 10° WNW
Okean 3 3.8 21:08:02 10° N 21:12:14 52° ENE 21:13:59 31° SE
FALCON 9 DEB 3.4 21:12:12 10° SW 21:15:22 43° SSE 21:15:22 43° SSE
Meteor 2-4 Rocket 3.7 21:09:54 10° NNW 21:15:41 88° ENE 21:18:54 27° SSE
Cosmos 1515 4.1 21:12:49 10° NNW 21:16:36 59° W 21:18:23 29° SSW
Cosmos 1802 Rocket 4.3 21:13:52 25° SSE 21:17:27 51° E 21:23:35 10° NNE
Cosmos 1850 Rocket 4.1 21:14:19 24° S 21:17:27 58° ESE 21:22:38 10° NNE
SL-27 R/B 3.1 21:19:37 34° ESE 21:19:37 34° ESE 21:22:34 10° NE
Cosmos 44 3.3 21:15:43 10° NW 21:20:34 88° NE 21:23:09 29° SE
ATLAS 5 CENTAUR R/B 1.6 21:18:32 10° NW 21:21:00 82° SW 21:23:25 27° SE
Cosmos 676 Rocket 4.4 21:16:28 10° SW 21:21:45 65° WNW 21:27:06 10° NNE
USA 267 3.3 21:23:01 10° ENE 21:29:36 84° NNW 21:36:10 10° WSW
Spot 4 4.0 21:27:26 31° SE 21:29:36 63° ENE 21:34:23 10° N
NOSS 3-2 (A) 3.4 21:28:47 10° SW 21:34:38 80° SE 21:41:27 10° NE
Cosmos 841 Rocket 3.5 21:34:27 10° NNW 21:39:41 75° WSW 21:42:00 34° S
NOSS 3-2 (C) 3.4 21:35:51 16° SSW 21:40:32 62° SE 21:47:10 10° NE
Cosmos 540 Rocket 3.5 21:35:56 10° NNW 21:41:08 75° WSW 21:43:22 34° S
SL-16 R/B 2.6 21:36:05 10° NW 21:41:37 55° WSW 21:44:17 29° S
Lacrosse 5 2.3 21:39:15 10° WNW 21:44:04 44° SW 21:45:31 35° S
Cosmos 2322 4.2 21:38:42 10° NNW 21:44:17 53° NE 21:47:37 24° ESE
Cosmos 1378 Rocket 4.4 21:46:03 10° N 21:50:19 41° ENE 21:51:46 31° ESE
Cosmos 1570 Rocket 4.3 21:45:40 10° NNW 21:50:55 61° WSW 21:53:10 33° S
Tsikada Rocket 4.1 21:45:21 10° N 21:51:46 74° ENE 21:54:55 32° SSE
Cosmos 1741 Rocket 4.0 21:48:23 22° SSW 21:51:52 86° WNW 21:57:12 10° NNE
Cosmos 2219 Rocket 3.0 21:47:29 10° NNW 21:52:59 46° NE 21:56:38 20° ESE
Cosmos 2208 Rocket 4.1 21:47:47 10° NNW 21:53:04 68° WSW 21:55:11 36° S
Cosmos 1814 Rocket 4.0 21:48:15 10° NNW 21:53:26 71° WSW 21:55:32 36° S
Cosmos 2082 Rocket 3.4 21:50:17 10° WSW 21:55:40 42° NW 22:01:03 10° NNE
COSMOS 2487 4.2 21:58:46 20° E 21:58:46 20° E 22:00:39 10° NE
Cosmos 2237 4.2 21:52:24 10° NW 21:58:08 76° WSW 22:00:34 36° SSE
Cosmos 2333 4.5 21:52:56 10° NNW 21:58:45 65° NE 22:01:49 28° SE
Cosmos 2084 Rocket 3.7 21:59:01 45° SE 21:59:08 45° SE 22:03:16 10° ENE
Terra 3.6 22:00:02 14° SW 22:02:49 23° W 22:06:38 10° NW
Cosmos 2322 Rocket 2.8 21:58:30 10° NW 22:03:55 46° WSW 22:06:13 31° SSW
EO 1 Del DPAF 3.3 22:00:53 10° NNE 22:04:36 55° ESE 22:04:57 52° SE
Cosmos 2100 Rocket 4.3 22:05:35 21° SSW 22:09:47 61° WNW 22:15:54 10° N
Meteor 1-11 Rocket 3.7 22:09:09 35° S 22:11:42 83° E 22:17:30 10° NNE
Cosmos 1242 Rocket 2.4 22:08:06 10° NNW 22:11:43 89° ENE 22:12:07 70° SSE
Helios 1A 4.0 22:13:11 29° ESE 22:14:34 38° ENE 22:18:30 10° N
Cosmos 1869 Rocket 4.5 22:13:01 23° SW 22:15:22 44° WNW 22:19:40 10° N
ERBS 3.3 22:12:33 10° WNW 22:15:46 45° N 22:18:11 16° ENE
Cosmos 2360 Rocket 2.3 22:12:39 10° NW 22:18:15 62° WSW 22:20:20 38° S
COSMOS 2428 3.1 22:13:45 10° NNW 22:19:27 60° NE 22:22:37 27° ESE
ATLAS 3B R/B 2.8 22:21:12 34° S 22:23:40 50° SE 22:30:03 10° NE
Iridium 4 Rocket 4.3 22:21:45 23° SW 22:23:46 35° WNW 22:27:40 10° NNW
Okean 2 4.3 22:20:10 10° N 22:24:03 39° ENE 22:25:03 34° ESE
ALOS 2 2.6 22:27:44 50° S 22:28:48 75° WSW 22:33:12 10° NNW
SL-4 R/B 3.2 22:25:28 10° WSW 22:27:12 25° WSW 22:27:12 25° WSW
Nimbus 7 Rocket 4.4 22:24:02 10° NNE 22:29:55 69° ESE 22:32:15 38° S
Cosmos 1725 Rocket 4.1 22:27:19 31° SSW 22:30:36 78° WNW 22:36:59 10° N
USA 238 DEB 4.1 22:24:16 10° WSW 22:30:58 66° NW 22:37:59 10° NE
USA 238 4.0 22:24:22 10° WSW 22:31:04 66° NW 22:38:06 10° NE
Cosmos 1674 Rocket 3.6 22:27:57 10° NNW 22:32:16 69° W 22:33:13 51° SSW
Cosmos 1536 3.1 22:34:39 47° SW 22:35:34 62° WNW 22:39:32 10° N
Cosmos 1666 3.4 22:37:32 38° WSW 22:38:23 46° WNW 22:42:02 10° N
Cosmos 1743 2.8 22:38:17 57° ESE 22:38:36 60° E 22:42:28 10° NNE
Cosmos 2333 Rocket 2.2 22:33:04 10° NNW 22:38:55 89° ENE 22:41:18 37° SSE
Cosmos 1271 Rocket 2.5 22:36:39 10° NNW 22:40:26 87° WSW 22:40:47 73° S
Cosmos 1356 4.1 22:41:30 42° W 22:41:58 45° WNW 22:45:18 10° N
NOSS 0 Rocket 4.3 22:36:53 10° NNW 22:43:05 61° NE 22:47:14 22° SE
Cosmos 2237 Rocket 3.2 22:37:44 10° NNW 22:43:08 42° NE 22:47:32 15° ESE
MOS 1-B Rocket 4.4 22:37:34 10° N 22:43:12 53° WNW 22:46:44 22° SW
Cosmos 2061 Rocket 4.5 22:41:23 24° SW 22:45:02 54° WNW 22:51:08 10° N
Lacrosse 4 Rocket 1.9 22:45:23 42° ESE 22:45:23 42° ESE 22:49:18 10° NE
NOSS 5 (C) 4.4 22:51:22 68° E 22:51:22 68° E 22:54:12 10° NE
Cosmos 1733 Rocket 3.6 22:50:59 37° SW 22:52:21 53° WNW 22:56:42 10° N
Meteor 2-11 Rocket 4.4 22:51:22 39° S 22:53:48 78° E 22:59:56 10° NNE
Thor Agena Rocket 4.1 22:49:32 10° N 22:54:28 53° WNW 22:57:00 27° SW
SL-27 R/B 4.5 22:53:08 17° W 22:54:42 23° NW 22:57:25 10° N
Cosmos 44 Rocket 3.3 22:50:32 10° NW 22:55:31 86° NE 22:57:31 38° SE
CENTAUR R/B 3.0 22:52:45 10° WSW 22:59:04 68° NW 23:06:38 10° NE
Cosmos 968 Rocket 3.5 22:59:01 46° SSE 23:00:17 61° ESE 23:05:21 10° NNE
Cosmos 1975 3.0 23:02:22 51° ESE 23:02:47 54° E 23:06:45 10° NNE
SL-24 DEB 4.2 22:59:12 10° N 23:04:01 87° W 23:05:18 50° S
Resurs 1-4 Rocket 4.4 23:03:35 10° ENE 23:05:36 12° E 23:07:37 10° ESE
Cosmos 1782 Rocket 3.7 23:10:37 52° SE 23:11:23 62° E 23:15:41 10° NNE
Cosmos 1378 4.2 23:08:55 10° NNW 23:12:17 32° W 23:12:29 32° W
USA 267 3.6 23:06:00 10° E 23:12:28 66° N 23:18:57 10° W
Cosmos 1707 3.5 23:11:34 10° N 23:15:22 45° ENE 23:16:13 38° ESE
Cosmos 1842 3.2 23:13:21 10° NNW 23:17:18 72° W 23:17:41 66° SW
Cosmos 2233 Rocket 4.4 23:14:31 29° SW 23:17:43 57° WNW 23:23:57 10° N
Cosmos 1464 Rocket 4.1 23:15:36 37° SSE 23:18:10 69° E 23:24:20 10° NNE
Cosmos 1908 Rocket 3.6 23:18:33 50° SW 23:19:33 68° WNW 23:23:56 10° N
Cosmos 2344 4.3 23:10:57 10° NW 23:19:52 84° NE 23:32:16 10° SE
Helios 1B rocket 3.3 23:17:25 10° NNE 23:21:13 35° E 23:21:48 34° ESE
CZ-4 R/B 4.3 23:16:43 10° NNE 23:21:35 51° E 23:23:00 39° SSE
Meteor 1-21 4.2 23:17:19 10° NNW 23:23:11 81° W 23:25:21 40° S
SL-16 R/B 4.4 23:23:36 10° W 23:24:28 10° W 23:25:21 10° WSW
Cosmos 2227 Rocket 3.9 23:22:42 16° ESE 23:24:30 19° E 23:28:22 10° ENE
Lacrosse 5 4.2 23:24:40 10° WSW 23:24:41 10° WSW 23:24:41 10° WSW
Cosmos 2322 4.4 23:23:11 10° NW 23:28:18 36° WSW 23:29:31 32° SW
NOSS 3-2 (C) 4.4 23:25:46 10° WSW 23:31:43 51° NNW 23:38:38 10° NE
Cosmos 1833 4.5 23:28:44 27° SW 23:31:47 64° NW 23:37:27 10° NNE
COSMOS 2487 3.5 23:32:14 34° W 23:32:50 37° WNW 23:36:05 10° NNE
Nadezhda 4 Rocket 4.0 23:28:50 10° N 23:35:12 88° E 23:38:04 35° S
Cosmos 2219 Rocket 2.7 23:31:36 10° NW 23:36:57 43° WSW 23:38:19 37° SW
Cosmos 2084 Rocket 4.5 23:35:30 16° W 23:38:41 44° NNW 23:42:53 10° NE
Meteor 1-29 4.1 23:37:52 10° NNE 23:41:03 32° E 23:41:13 32° ESE
Cosmos 1975 Rocket 3.4 23:37:11 10° NNW 23:41:34 52° W 23:42:25 45° SW
Cosmos 1437 3.0 23:41:47 10° N 23:44:31 59° NE 23:44:31 59° NE
Okean 2 Rocket 3.4 23:45:22 43° SSE 23:46:31 58° E 23:50:58 10° NNE
Cosmos 2034 Rocket 4.0 23:43:53 36° S 23:46:38 79° E 23:52:59 10° NNE
Cosmos 1503 Rocket 4.0 23:45:55 40° SSW 23:47:56 87° WNW 23:53:21 10° NNE
Landsat 4 3.6 23:44:51 10° NNE 23:48:40 79° WNW 23:49:12 64° SW
Cosmos 1092 Rocket 4.1 23:43:08 10° N 23:49:26 74° ENE 23:52:45 29° SSE
Helios 1A 4.1 23:49:48 29° WSW 23:50:12 29° W 23:53:56 10° NNW
SL-16 R/B 3.1 23:46:15 16° SE 23:51:12 55° ENE 23:57:17 10° N
CZ-2D R/B 3.7 23:47:22 10° NE 23:52:02 27° E 23:54:55 18° SE
ERBS 3.2 23:48:54 10° WNW 23:51:02 37° WNW 23:51:02 37° WNW
SL-16 R/B 3.0 23:47:45 10° NNW 23:53:20 52° NE 23:58:53 10° SE
Cosmos 1300 Rocket 3.7 23:52:28 46° SSE 23:53:30 62° E 23:57:47 10° NNE
Cosmos 1544 4.1 23:54:38 32° W 23:55:11 34° WNW 23:58:35 10° N
